HKJKHKMO

Guest
Details From HKJK - Nairobi Jomo Kanyatta Intl
To HKMO - Mombasa Moi Intl
Flight Number -
Tags Generated
Created
Modified
Stats Distance 229 nm / 425 km
Max Altitude 0 ft / 0 m
Waypoints 3
Social Downloads 1
Likes 0
Share VATSIM

Download

Looking for another format? Having issues loading an existing format? Contact us
Advertisement - Login to hide

Notes

Generated

Route

HKJK MOV65 HKMO

ID Type Via Altitude Latitude Longitude Leg Dist Tot Dist Heading (true) Name
O HKJK APT - 0 ft / 0 m -1.32774˚ 36.91612˚ - 0 nm - -
MOV65 FIX - 0 ft / 0 m -4.04281˚ 39.58854˚ 228 nm 228 nm 136° / 135° -
O HKMO APT - 0 ft / 0 m -4.02983˚ 39.59137˚ 0 nm 229 nm 12° / 12° -

Altitude Profile

Advertisement - Login to hide

Weather


0- 5 10 15 20 25 30 35+ Temperature / ° C

Clouds and Precipitation
Forecast for 2017-12-18 18:00 UTC. Updated a few seconds ago

Ground ~20,000 ft ~40,000 ft Winds

HKJK

Details ICAO HKJK (NBO)
Name Nairobi Jomo Kanyatta Intl
Region Kenya
Timezone Africa/Nairobi (UTC+3.0)
Stats Elevation 5,330 ft / 1,625 m (AMSL)
Location -1.317073° 36.930757°
Runways 1
Magnetic Variation 0.576° E

METAR

HKJK 181700Z 05010KT 9999 FEW032 21/13 Q1019

Decode

TAF

TAF HKJK 181100Z 1812/1918 05010KT 9999 SCT026 TEMPO 1812/1818 -SHRA FEW023CB SCT024 BECMG 1820/1823 04010KT SCT018 BECMG 1908/1911 05015KT SCT026

Decode

Departure Runways

ID Width Length Bearing (true) Bearing (mag) Surface Threshold Offset Overrun Length
06 148 ft / 45 m 13,215 ft / 4,028 m 53.90° 53.32° Asphalt 0 ft / 0 m 194 ft / 59 m
24 148 ft / 45 m 13,215 ft / 4,028 m 233.90° 233.32° Asphalt 0 ft / 0 m 197 ft / 60 m

HKMO

Details ICAO HKMO (MBA)
Name MOMBASA MOI INTL
Region Kenya
Timezone Africa/Nairobi (UTC+3.0)
Stats Elevation 200 ft / 61 m (AMSL)
Location -4.030744° 39.596732°
Runways 2
Magnetic Variation 0.939° W

METAR

HKMO 181700Z 06011KT 9999 FEW024 27/23 Q1011 NOSIG

Decode

TAF

TAF HKMO 180500Z 1806/1912 34005KT 9999 FEW020 BECMG 1809/1812 06010KT SCT026 BECMG 1819/1822 04005KT FEW022 BECMG 1900/1906 36005KT FEW019 BECMG 1909/1912 06010KT SCT026

Decode

Destination Runways

ID Width Length Bearing (true) Bearing (mag) Surface Threshold Offset Overrun Length
03 151 ft / 46 m 11,040 ft / 3,365 m 29.14° 30.08° Asphalt 2,503 ft / 763 m 197 ft / 60 m
15 118 ft / 36 m 4,492 ft / 1,369 m 150.47° 151.41° Asphalt 0 ft / 0 m 190 ft / 58 m
21 151 ft / 46 m 11,040 ft / 3,365 m 209.14° 210.08° Asphalt 0 ft / 0 m 197 ft / 60 m
33 118 ft / 36 m 4,492 ft / 1,369 m 330.47° 331.41° Asphalt 0 ft / 0 m 250 ft / 76 m

Approach Navaids

Runway Type Ident Frequency Range Bearing (true) Bearing (mag) Slope Elevation
21 Localiser IMI 110.10 MHz 18 nm / 33 km 209.16° 210.10° - 187 ft / 57 m (AMSL)
21 Glidescope IMI 110.10 MHz 10 nm / 19 km 209.14° 210.07° 3.00° 194 ft / 59 m (AMSL)
21 DME IMI 110.10 MHz 18 nm / 33 km - - - 257 ft / 78 m (AMSL)

Popular Alternatives